Regional Weather Roundup
Issued by NWS

Home | Current Version | Previous Version | Text Only | Print | Product List | Glossary Off
Versions: 1 2 3 4 5 6 7 8 9 10 11 12 13 14 15 16 17 18 19 20 21 22 23 24 25 26 27 28 29 30 31 32 33 34 35 36 37 38 39 40 41 42 43 44 45 46 47 48 49 50

000
ASUS43 KLMK 011610
RWRKY
KENTUCKY REGIONAL WEATHER ROUNDUP
NATIONAL WEATHER SERVICE LOUISVILLE KY
1200 PM EDT WED APR 01 2015

NOTE "FAIR" INDICATES FEW OR NO CLOUDS BELOW 12,000 FEET
WITH NO SIGNIFICANT WEATHER AND/OR OBSTRUCTIONS TO VISIBILITY.

KYZ001>023-026-027-061>063-070>075-011700-
WESTERN AND SOUTH CENTRAL KENTUCKY

CITY           SKY/WX    TMP DP  RH WIND       PRES   REMARKS
PADUCAH        MOSUNNY   69  38  32 S9        30.07F
HENDERSON      SUNNY     63  39  42 S12       30.10F
OWENSBORO      SUNNY     63  40  42 S7        30.12S
HOPKINSVILLE   SUNNY     66  37  34 E9        30.10R
BOWLING GREEN  SUNNY     64  37  36 E8        30.13S
GLASGOW        SUNNY     62  33  33 NE9       30.14S
$$

KYZ024-025-028>034-038-045-046-053-011700-
NORTH CENTRAL KENTUCKY

CITY           SKY/WX    TMP DP  RH WIND       PRES   REMARKS
LOUISVILLE/SDF MOSUNNY   60  35  39 SE8       30.15S
LOUISVILLE/LOU SUNNY     58  36  43 VRB3      30.16R
FORT KNOX      SUNNY     60  31  33 E10       30.13S
$$

KYZ035>037-039>044-047>052-055>060-089>105-011700-
NORTHEAST KENTUCKY

CITY           SKY/WX    TMP DP  RH WIND       PRES   REMARKS
LEXINGTON      SUNNY     57  32  38 SE7       30.16S
COVINGTON      MOSUNNY   55  35  47 S7        30.17S
FRANKFORT      SUNNY     57  33  40 E8        30.15S
$$

KYZ054-064>069-076>088-106>120-011700-
SOUTHEAST KENTUCKY

CITY           SKY/WX    TMP DP  RH WIND       PRES   REMARKS
JACKSON        SUNNY     54  28  36 VRB3      30.16F
LONDON         SUNNY     58  25  28 MISG      30.15S
SOMERSET       SUNNY     59  32  36 NE6       30.16S
MIDDLESBORO    SUNNY     60  32  35 SE3       30.14F
MONTICELLO     SUNNY     62  35  36 N6        30.18R
$$




USA.gov is the U.S. government's official web portal to all federal, state and local government web resources and services.